Weather History for Demopolis Municipal Airport, AL

Change the Weather History Date:

Saturday, June 7, 2014

  Actual Average (KMEI) Record (KMEI)
Temperature  
Mean Temperature 79 °F 76 °F  
Max Temperature 90 °F 88 °F 99 °F (1972)
Min Temperature 68 °F 65 °F 51 °F (2000)
Degree Days  
Heating Degree Days 0 0  
Month to date heating degree days 0  
Since 1 June heating degree days 0  
Since 1 July heating degree days 2553  
Cooling Degree Days 14 11  
Month to date cooling degree days 74  
Year to date cooling degree days 357  
Since 1 June cooling degree days 74  
Growing Degree Days 29 (Base 50)    
Moisture  
Dew Point 73 °F    
Average Humidity 69    
Maximum Humidity 100    
Minimum Humidity 49    
Precipitation  
Precipitation 0.00 in 0.14 in 1.43 in (1965)
Month to date precipitation 1.00  
Year to date precipitation 26.43  
Sea Level Pressure  
Sea Level Pressure 29.94 in    
Wind  
Wind Speed 1 mph (SSW)    
Max Wind Speed 10 mph    
Max Gust Speed 17 mph    
Visibility 10 miles    
Events Rain    
T = Trace of Precipitation, MM = Missing Value Source: NWS Daily Summary

Daily Weather History Graph

Daily Weather History Graph

Search for Another Location

Airport:

Trip Planner

Search our weather history database for the weather conditions in past years. The results will help you decide how hot, cold, wet, or windy it might be!

Date:

Astronomy

Jun. 07, 2014 Rise Set
Actual Time 5:44 AM CDT 7:57 PM CDT
Civil Twilight 5:16 AM CDT 8:25 PM CDT
Nautical Twilight 4:41 AM CDT 9:00 PM CDT
Astronomical Twilight 4:04 AM CDT 9:37 PM CDT
Moon 2:31 PM CDT (6/7) 1:47 AM CDT (6/7)
Length of Visible Light 15h 09m
Length of Day
14h 13m
Waxing Gibbous, 68% of the Moon is Illuminated
Jun 7
Waxing Gibbous
Jun 12
Full
Jun 19
Last Quarter
Jun 27
New
Jul 5
First Quarter

Hourly Weather History & Observations

Time (CDT) Temp. Heat Index Dew Point Humidity Pressure Visibility Wind Dir Wind Speed Gust Speed Precip Events Conditions
12:15 AM 68.9 °F - - N/A% 29.95 in 10.0 mi Calm Calm - N/A   Clear
12:35 AM 69.1 °F - - N/A% 29.94 in 10.0 mi Calm Calm - N/A   Clear
12:55 AM 68.9 °F - - N/A% 29.94 in 10.0 mi Calm Calm - N/A   Clear
1:15 AM 69.1 °F - - N/A% 29.93 in 7.0 mi Calm Calm - N/A   Scattered Clouds
1:35 AM 69.8 °F - - N/A% 29.93 in 10.0 mi Calm Calm - N/A   Mostly Cloudy
1:55 AM 69.6 °F - - N/A% 29.93 in 10.0 mi Calm Calm - N/A   Unknown
2:15 AM 69.3 °F - - N/A% 29.93 in 10.0 mi Calm Calm - N/A   Unknown
2:35 AM 68.5 °F - - N/A% 29.93 in 10.0 mi Calm Calm - N/A   Unknown
2:55 AM 69.1 °F - - N/A% 29.94 in 10.0 mi Calm Calm - N/A   Clear
3:15 AM 69.1 °F - - N/A% 29.95 in 10.0 mi Calm Calm - N/A   Scattered Clouds
3:35 AM 68.9 °F - - N/A% 29.94 in 10.0 mi Calm Calm - N/A   Unknown
3:55 AM 69.8 °F - - N/A% 29.95 in 10.0 mi Calm Calm - N/A   Unknown
4:15 AM 69.4 °F - - N/A% 29.95 in 10.0 mi Calm Calm - N/A   Unknown
4:35 AM 68.9 °F - - N/A% 29.96 in 10.0 mi Calm Calm - N/A   Unknown
4:55 AM 68.4 °F - - N/A% 29.97 in 10.0 mi Calm Calm - N/A   Clear
5:15 AM 68.9 °F - - N/A% 29.97 in 10.0 mi North 3.5 mph - N/A   Clear
5:35 AM 69.1 °F - - N/A% 29.98 in 10.0 mi Calm Calm - N/A   Scattered Clouds
5:55 AM 68.9 °F - - N/A% 29.98 in 10.0 mi Calm Calm - N/A   Clear
6:15 AM 69.1 °F - - N/A% 29.98 in 10.0 mi Calm Calm - N/A   Clear
6:35 AM 69.8 °F - - N/A% 29.99 in 10.0 mi Calm Calm - N/A   Scattered Clouds
6:55 AM 70.5 °F - - N/A% 29.99 in 10.0 mi Calm Calm - N/A   Scattered Clouds
7:15 AM 71.2 °F - - N/A% 29.99 in 10.0 mi Calm Calm - N/A   Clear
7:55 AM 73.6 °F - 73.6 °F 100% 29.99 in 10.0 mi Calm Calm - N/A   Unknown
8:15 AM 73.8 °F - 73.8 °F 100% 30.00 in 10.0 mi Calm Calm - N/A   Unknown
8:35 AM 76.3 °F - 76.3 °F 100% 30.00 in 10.0 mi Calm Calm - N/A   Unknown
8:55 AM 76.6 °F - 76.6 °F 100% 29.99 in 10.0 mi Calm Calm - N/A   Clear
9:15 AM 78.4 °F - 78.3 °F 99% 29.99 in 10.0 mi Calm Calm - N/A   Clear
9:35 AM 79.0 °F - 78.8 °F 99% 29.99 in 10.0 mi Calm Calm - N/A   Clear
9:55 AM 80.6 °F 88.3 °F 79.0 °F 95% 29.99 in 10.0 mi Calm Calm - N/A   Clear
10:15 AM 82.6 °F 93.3 °F 79.3 °F 90% 29.99 in 10.0 mi Calm Calm - N/A   Clear
10:55 AM 84.4 °F 98.0 °F 80.1 °F 87% 29.99 in 10.0 mi NNE 3.5 mph - N/A   Clear
11:15 AM 85.5 °F 91.8 °F 72.5 °F 65% 29.99 in 10.0 mi Calm Calm - N/A   Clear
12:15 PM 87.3 °F 92.8 °F 71.1 °F 58% 29.97 in 10.0 mi NE 3.5 mph - N/A   Unknown
12:35 PM 88.7 °F 95.7 °F 72.1 °F 58% 29.96 in 10.0 mi ESE 3.5 mph - N/A   Unknown
12:55 PM 89.1 °F 95.0 °F 71.2 °F 55% 29.95 in 10.0 mi South 3.5 mph - N/A   Unknown
1:15 PM 87.6 °F 93.9 °F 71.6 °F 59% 29.94 in 10.0 mi East 3.5 mph - N/A   Unknown
1:35 PM 87.6 °F 93.5 °F 71.1 °F 58% 29.94 in 10.0 mi SSW 3.5 mph - N/A   Unknown
1:55 PM 87.3 °F 93.2 °F 71.4 °F 59% 29.94 in 10.0 mi SW 3.5 mph - N/A   Unknown
2:15 PM 86.0 °F 91.8 °F 71.4 °F 62% 29.93 in 10.0 mi SW 4.6 mph - N/A Rain Light Rain
2:35 PM 88.0 °F 92.9 °F 69.8 °F 55% 29.93 in 10.0 mi Calm Calm - N/A   Unknown
2:55 PM 89.4 °F 93.1 °F 68.0 °F 49% 29.92 in 10.0 mi Calm Calm - N/A   Unknown
3:15 PM 89.8 °F 93.8 °F 68.0 °F 49% 29.91 in 10.0 mi West 3.5 mph - N/A   Unknown
3:35 PM 90.5 °F 95.1 °F 69.1 °F 49% 29.91 in 10.0 mi SW 5.8 mph - N/A   Unknown
3:55 PM 90.9 °F 95.8 °F 69.4 °F 49% 29.90 in 10.0 mi WSW 6.9 mph - N/A   Unknown
4:15 PM 90.9 °F 96.7 °F 70.3 °F 51% 29.90 in 10.0 mi SW 4.6 mph - N/A   Unknown
4:35 PM 90.9 °F 96.7 °F 70.5 °F 51% 29.89 in 10.0 mi SW 6.9 mph - N/A   Unknown
4:55 PM 90.9 °F 96.7 °F 70.3 °F 51% 29.89 in 10.0 mi SSW 5.8 mph - N/A   Clear
5:15 PM 90.9 °F 96.2 °F 69.8 °F 50% 29.88 in 10.0 mi SW 4.6 mph - N/A   Clear
5:35 PM 90.7 °F 95.9 °F 69.8 °F 50% 29.88 in 10.0 mi South 4.6 mph - N/A   Scattered Clouds
5:55 PM 90.5 °F 95.1 °F 69.1 °F 49% 29.87 in 10.0 mi SSW 4.6 mph - N/A   Scattered Clouds
6:15 PM 90.3 °F 96.2 °F 70.7 °F 52% 29.87 in 10.0 mi South 4.6 mph - N/A   Scattered Clouds
6:35 PM 89.8 °F 96.0 °F 71.2 °F 54% 29.88 in 10.0 mi South 3.5 mph - N/A   Clear
6:55 PM 87.8 °F 94.3 °F 72.0 °F 59% 29.88 in 10.0 mi Calm Calm - N/A   Clear
7:15 PM 83.5 °F 93.3 °F 77.5 °F 82% 29.89 in 10.0 mi SE 3.5 mph - N/A   Clear
7:35 PM 82.2 °F 95.4 °F 82.2 °F 100% 29.89 in 10.0 mi Calm Calm - N/A   Clear
7:55 PM 80.6 °F - - N/A% 29.90 in 10.0 mi Calm Calm - N/A   Clear
8:15 PM 79.7 °F - - N/A% 29.91 in 10.0 mi Calm Calm - N/A   Clear
8:35 PM 78.8 °F - - N/A% 29.91 in 10.0 mi Calm Calm - N/A   Clear
8:55 PM 79.0 °F - - N/A% 29.93 in 10.0 mi Calm Calm - N/A   Unknown
9:15 PM 78.3 °F - - N/A% 29.93 in 10.0 mi Calm Calm - N/A   Unknown
9:35 PM 78.1 °F - - N/A% 29.93 in 10.0 mi Calm Calm - N/A   Unknown
9:55 PM 77.5 °F - - N/A% 29.93 in 10.0 mi Calm Calm - N/A   Unknown
10:15 PM 76.8 °F - - N/A% 29.92 in 10.0 mi Calm Calm - N/A   Clear
10:35 PM 75.7 °F - - N/A% 29.93 in 10.0 mi Calm Calm - N/A   Clear
11:15 PM 77.7 °F - - N/A% 29.96 in 10.0 mi West 6.9 mph - N/A Rain Rain
11:35 PM 75.2 °F - 67.8 °F 78% 29.98 in 7.0 mi WSW 10.4 mph 17.3 mph N/A Rain Rain
11:55 PM 73.8 °F - 72.5 °F 96% 29.96 in 10.0 mi WNW 3.5 mph - N/A Rain Rain